(63) Ausonia
ephemeris date magn radius delta ra dec elong phase
Today27 Jul 202612.62.591 AU3.012 AU04h19m+26°10'56.3°19.0°
Opposition9 Dec 202610.82.687 AU1.709 AU05h05m+31°50'171.0°3.3°
(63) Ausonia - 2026-07-27
astro.vanbuitenen.nl


 
-1 year
-1 month
-1 day
Now
+1 day
+1 month
+1 year

The interactive orbit chart above shows the body's path through the solar system and its position at the given date. Green and blue lines are shown perpendicular to the ecliptic plane: Green if the path is above the ecliptic plane, blue if it is below. (Left-click and drag to rotate the view; Right-click and drag to move the view; Use scroll wheel to zoom in our out.)

The orbital elements of Ausonia are:

            e (Eccentricity)                : 0.1281449
            a (Semimajor axis)              : 2.3942024
            i (Inclination)                 : 5.77350
            Ω (Longitude of ascending node) : 337.68395
            ω (Argument of perihelion)      : 295.55111
            M (Mean anomaly)                : 111.38411
            Epoch                           : 2026 Jun 09

            L (Longitude of perihelion)     : 273.34863
            B (Latitude of perihelion)      : -5.20721
            P (Orbital period in years)     : 3.70            
        

The light curve chart below shows the estimated development of the minor planet's magnitude.


The all-sky chart below shows the path of the minor planet over the same period as the light curve. The current position is marked yellow.





The following chart shows the path of the minor planet in the next few days. The field of view is optimized for (~10x50) binoculars and finderscopes.




Ephemerides:
Date       Time       RA (2000)    DEC (2000)    delta   radius  elong  phase   PA    magn
2026-07-27 00:00 UT   04 19 15.2   +26 10 31     3.012    2.591   56.3   19.0   263   12.6 
2026-07-27 07:53 UT   04 19 45.5   +26 12 09     3.009    2.591   56.5   19.1   263   12.6 
2026-07-28 00:00 UT   04 20 47.4   +26 15 29     3.002    2.592   56.9   19.2   263   12.6 
2026-07-29 00:00 UT   04 22 19.1   +26 20 25     2.993    2.593   57.5   19.3   264   12.6 
2026-07-30 00:00 UT   04 23 50.5   +26 25 16     2.983    2.594   58.1   19.4   264   12.6 
2026-07-31 00:00 UT   04 25 21.5   +26 30 05     2.972    2.595   58.7   19.5   264   12.6 
2026-08-01 00:00 UT   04 26 52.0   +26 34 50     2.962    2.596   59.3   19.7   264   12.6 
2026-08-02 00:00 UT   04 28 22.0   +26 39 31     2.952    2.597   59.9   19.8   264   12.6 
2026-08-03 00:00 UT   04 29 51.6   +26 44 10     2.942    2.598   60.5   19.9   264   12.6 
2026-08-04 00:00 UT   04 31 20.8   +26 48 45     2.931    2.599   61.2   20.0   264   12.6 
2026-08-05 00:00 UT   04 32 49.4   +26 53 17     2.921    2.600   61.8   20.1   264   12.6 
2026-08-06 00:00 UT   04 34 17.6   +26 57 45     2.910    2.600   62.4   20.2   264   12.6 
2026-08-07 00:00 UT   04 35 45.3   +27 02 11     2.900    2.601   63.0   20.3   264   12.5 
2026-08-08 00:00 UT   04 37 12.4   +27 06 33     2.889    2.602   63.6   20.4   264   12.5 
2026-08-09 00:00 UT   04 38 39.1   +27 10 53     2.878    2.603   64.3   20.5   264   12.5 
2026-08-10 00:00 UT   04 40 05.1   +27 15 09     2.867    2.604   64.9   20.6   265   12.5 
2026-08-11 00:00 UT   04 41 30.7   +27 19 22     2.856    2.605   65.5   20.7   265   12.5 
2026-08-12 00:00 UT   04 42 55.6   +27 23 32     2.845    2.606   66.2   20.8   265   12.5 
2026-08-13 00:00 UT   04 44 19.9   +27 27 39     2.834    2.607   66.8   20.9   265   12.5 
2026-08-14 00:00 UT   04 45 43.7   +27 31 44     2.823    2.608   67.4   21.0   265   12.5 
2026-08-15 00:00 UT   04 47 06.8   +27 35 45     2.812    2.609   68.1   21.1   265   12.5 
2026-08-16 00:00 UT   04 48 29.3   +27 39 44     2.801    2.610   68.7   21.2   265   12.5 
2026-08-17 00:00 UT   04 49 51.2   +27 43 40     2.789    2.611   69.4   21.3   265   12.5 
2026-08-18 00:00 UT   04 51 12.4   +27 47 33     2.778    2.612   70.0   21.4   265   12.5 
2026-08-19 00:00 UT   04 52 32.9   +27 51 24     2.766    2.613   70.7   21.4   265   12.5 
2026-08-20 00:00 UT   04 53 52.7   +27 55 12     2.755    2.614   71.4   21.5   265   12.5 
2026-08-21 00:00 UT   04 55 11.9   +27 58 57     2.743    2.615   72.0   21.6   265   12.5 
2026-08-22 00:00 UT   04 56 30.3   +28 02 40     2.732    2.615   72.7   21.7   265   12.5 


    Terminology:
            
    delta:  distance between minor planet and earth in AU
    radius: distance between minor planet and sun in AU
    magn:   magnitude (brightness) estimate    
    ra:     right ascension in hours (24h = 360deg)
    dec:    declination in degrees
    elong:  elongation in degrees (angle sun-earth-minor planet)    
    phase:  phase angle in degrees (angle sun-minor planet-earth)        
    AU:     Astronomical Unit (mean distance between earth and sun: 149597870.7 km
    

Orbital elements provided by the MPC (Minor Planet Center).
Calculations by a modified version of AAPlus, a C# implementation of the AA+ project by PJ Naughter from the algorithms presented in the book "Astronomical Algorithms" by Jean Meeus.
NGC2000 dso catalog and star labels from VizieR as provided by the Strasbourg astronomical Data Center.
Tycho2 catalog from the ESO archive.